{"data":{"norad_id":52898,"epoch":"2026-05-25T04:01:00.581376Z","epoch_age_seconds":63663,"freshness":"FRESH","line1":"1 52898U 22065E   26145.16736784  .00000703  00000+0  14445-3 0  9997","line2":"2 52898  98.2185 289.4858 0009258  96.6418 263.5838 14.63644827207884","mean_motion":14.63644827,"eccentricity":0.0009258,"inclination_deg":98.2185,"raan_deg":289.4858,"arg_perigee_deg":96.6418,"mean_anomaly_deg":263.5838,"bstar":0.00014445,"rev_number":20788,"period_min":98.384524266829,"perigee_km":674.893856107,"apogee_km":687.96534962887,"semimajor_km":7059.5666028679,"source":"CELESTRAK","updated_at":"2026-05-25T13:37:57.954177Z"}}